User: anonymous   Login
Location: Unspecified
(0.0000°N, 0.0000°E)
Time: 10:35:33
(UTC+00:00)
Language:

NOSS 2-3 (D) - Orbit

View from above orbital plane
View from above orbital plane
View from above satellite
View from above satellite

Ground track
Ground track

The orbit data is extracted from the following two-line orbital elements,

1 23862U 96029D   18223.85402813 0.00000000  00000-0  00000-0 0    07
2 23862  63.3680  52.8475 0642000  16.3393 343.6607 13.40842351    07
Epoch (UTC): 11 August 2018 20:29:48
Eccentricity: 0.0642000
inclination: 63.3680°
perigee height: 625 km
apogee height: 1586 km
right ascension of ascending node: 52.8475°
argument of perigee: 16.3393°
revolutions per day: 13.40842351
mean anomaly at epoch: 343.6607°
orbit number at epoch: 0

The dashed part of the orbit path shows where the satellite is in the earth's shadow,  

DLR